Weather History for KDRM - June, 2014

Change the Weather History Date:

Sunday, June 1, 2014

  Actual Average (KCIU) Record (KCIU)
Temperature  
Mean Temperature 62 °F -  
Max Temperature 72 °F 65 °F 129 °F (2001)
Min Temperature 51 °F 41 °F 30 °F (1993)
Degree Days  
Heating Degree Days 4    
Growing Degree Days 12 (Base 50)    
Moisture  
Dew Point 49 °F    
Average Humidity 64    
Maximum Humidity 84    
Minimum Humidity 46    
Precipitation  
Precipitation 0.00 in - - ()
Sea Level Pressure  
Sea Level Pressure 30.03 in    
Wind  
Wind Speed 8 mph (SE)    
Max Wind Speed 10 mph    
Max Gust Speed 18 mph    
Visibility 10 miles    
Events      
Averages and records for this station are not official NWS values.
T = Trace of Precipitation, MM = Missing Value Source: NWS Daily Summary

Daily Weather History Graph

Daily Weather History Graph

Search for Another Location

Airport or City:

Trip Planner

Search our weather history database for the weather conditions in past years. The results will help you decide how hot, cold, wet, or windy it might be!

Date:

Astronomy

Jun. 01, 2014 Rise Set
Actual Time 5:47 AM EDT 9:18 PM EDT
Civil Twilight 5:10 AM EDT 9:55 PM EDT
Nautical Twilight 4:20 AM EDT 10:45 PM EDT
Astronomical Twilight 3:16 AM EDT 11:50 PM EDT
Moon 9:25 AM EDT (6/1) No Moon Set
Length of Visible Light 16h 45m
Length of Day
15h 30m
Waxing Crescent, 14% of the Moon is Illuminated
Jun 1
Waxing Crescent
Jun 5
First Quarter
Jun 13
Full
Jun 19
Last Quarter
Jun 27
New

Hourly Weather History & Observations

Time (EDT) Temp. Dew Point Humidity Pressure Visibility Wind Dir Wind Speed Gust Speed Precip Events Conditions
12:14 AM 53.2 °F 40.5 °F 62% 30.16 in 10.0 mi SE 10.4 mph 18.4 mph N/A   Clear
12:35 AM 53.1 °F 41.0 °F 64% 30.16 in 10.0 mi SE 8.1 mph - N/A   Clear
12:55 AM 53.2 °F 41.9 °F 65% 30.16 in 10.0 mi SSE 8.1 mph - N/A   Clear
1:14 AM 53.1 °F 42.1 °F 66% 30.15 in 10.0 mi SSE 9.2 mph - N/A   Clear
1:35 AM 53.6 °F 42.8 °F 67% 30.15 in 10.0 mi SSE 10.4 mph - N/A   Clear
1:55 AM 53.6 °F 42.6 °F 66% 30.15 in 10.0 mi SSE 9.2 mph - N/A   Clear
2:14 AM 53.4 °F 42.8 °F 67% 30.15 in 10.0 mi SSE 8.1 mph - N/A   Clear
2:35 AM 52.7 °F 43.0 °F 70% 30.15 in 10.0 mi SSE 9.2 mph - N/A   Clear
3:15 AM 52.9 °F 43.3 °F 70% 30.13 in 10.0 mi SSE 8.1 mph - N/A   Clear
3:35 AM 53.1 °F 43.7 °F 71% 30.13 in 10.0 mi SSE 8.1 mph - N/A   Clear
3:54 AM 53.4 °F 43.7 °F 70% 30.13 in 10.0 mi SSE 8.1 mph - N/A   Clear
4:15 AM 52.7 °F 43.9 °F 72% 30.12 in 10.0 mi SSE 8.1 mph - N/A   Clear
4:35 AM 51.8 °F 44.1 °F 75% 30.12 in 10.0 mi SE 8.1 mph - N/A   Clear
5:15 AM 51.8 °F 44.8 °F 77% 30.12 in 10.0 mi SSE 8.1 mph - N/A   Clear
5:35 AM 52.0 °F 45.3 °F 78% 30.11 in 10.0 mi SSE 10.4 mph - N/A   Clear
6:15 AM 53.1 °F 46.4 °F 78% 30.10 in 10.0 mi SSE 8.1 mph - N/A   Clear
6:35 AM 53.4 °F 46.8 °F 78% 30.10 in 10.0 mi SSE 8.1 mph - N/A   Clear
6:55 AM 53.6 °F 46.8 °F 78% 30.11 in 10.0 mi SSE 9.2 mph - N/A   Clear
7:15 AM 54.0 °F 46.9 °F 77% 30.10 in 10.0 mi SSE 9.2 mph - N/A   Clear
7:34 AM 54.5 °F 47.3 °F 77% 30.10 in 10.0 mi SSE 10.4 mph - N/A   Clear
7:55 AM 57.2 °F 48.0 °F 71% 30.10 in 10.0 mi SSE 9.2 mph - N/A   Clear
8:15 AM 59.0 °F 48.2 °F 67% 30.09 in 10.0 mi SSE 9.2 mph - N/A   Clear
8:34 AM 60.1 °F 47.8 °F 64% 30.09 in 10.0 mi SSE 10.4 mph - N/A   Clear
9:15 AM 62.6 °F 48.2 °F 59% 30.08 in 10.0 mi SSE 9.2 mph - N/A   Clear
9:34 AM 63.5 °F 47.5 °F 56% 30.08 in 10.0 mi SSE 10.4 mph - N/A   Clear
10:15 AM 65.8 °F 47.8 °F 52% 30.08 in 10.0 mi South 9.2 mph - N/A   Clear
10:35 AM 66.4 °F 48.2 °F 52% 30.07 in 10.0 mi SSE 6.9 mph - N/A   Clear
10:55 AM 67.6 °F 49.3 °F 52% 30.07 in 10.0 mi SE 6.9 mph - N/A   Clear
11:14 AM 67.5 °F 48.4 °F 50% 30.07 in 10.0 mi SE 6.9 mph - N/A   Clear
11:35 AM 67.6 °F 48.9 °F 51% 30.07 in 10.0 mi SE 6.9 mph - N/A   Clear
11:55 AM 69.3 °F 49.1 °F 49% 30.06 in 10.0 mi SE 8.1 mph - N/A   Clear
12:14 PM 68.2 °F 48.4 °F 49% 30.06 in 10.0 mi SSE 8.1 mph - N/A   Clear
12:35 PM 71.2 °F 49.8 °F 47% 30.05 in 10.0 mi SSE 10.4 mph - N/A   Clear
12:55 PM 70.5 °F 48.6 °F 46% 30.05 in 10.0 mi SSE 9.2 mph - N/A   Clear
1:14 PM 69.3 °F 49.5 °F 49% 30.05 in 10.0 mi SSE 8.1 mph - N/A   Clear
1:35 PM 70.5 °F 50.5 °F 49% 30.04 in 10.0 mi South 6.9 mph - N/A   Clear
1:55 PM 71.6 °F 52.0 °F 50% 30.03 in 10.0 mi South 8.1 mph - N/A   Clear
2:15 PM 72.3 °F 52.2 °F 49% 30.02 in 10.0 mi South 8.1 mph - N/A   Clear
2:35 PM 69.1 °F 51.1 °F 53% 30.02 in 10.0 mi SE 6.9 mph - N/A   Clear
2:54 PM 68.0 °F 50.4 °F 53% 30.02 in 10.0 mi SSE 10.4 mph - N/A   Clear
3:15 PM 65.3 °F 50.0 °F 58% 30.01 in 10.0 mi SE 8.1 mph - N/A   Scattered Clouds
3:35 PM 67.5 °F 50.9 °F 55% 30.00 in 10.0 mi ESE 8.1 mph - N/A   Scattered Clouds
4:15 PM 70.3 °F 52.7 °F 53% 29.98 in 10.0 mi ESE 10.4 mph - N/A   Clear
4:34 PM 70.7 °F 52.7 °F 53% 29.97 in 10.0 mi SE 9.2 mph 16.1 mph N/A   Clear
4:55 PM 70.3 °F 52.9 °F 54% 29.95 in 10.0 mi ESE 5.8 mph - N/A   Clear
5:15 PM 69.4 °F 52.5 °F 55% 29.95 in 10.0 mi SE 9.2 mph - N/A   Clear
5:34 PM 68.7 °F 52.3 °F 56% 29.94 in 10.0 mi SE 8.1 mph - N/A   Clear
5:55 PM 69.3 °F 53.1 °F 56% 29.94 in 10.0 mi SE 9.2 mph - N/A   Clear
6:15 PM 68.5 °F 52.7 °F 57% 29.93 in 10.0 mi SE 9.2 mph 17.3 mph N/A   Clear
6:35 PM 68.0 °F 52.9 °F 58% 29.92 in 10.0 mi SE 8.1 mph - N/A   Clear
7:14 PM 63.7 °F 52.0 °F 66% 29.92 in 10.0 mi SSE 3.5 mph - N/A   Clear
7:35 PM 63.7 °F 52.7 °F 67% 29.91 in 10.0 mi ESE 4.6 mph - N/A   Clear
7:55 PM 63.3 °F 52.0 °F 66% 29.91 in 10.0 mi East 3.5 mph - N/A   Clear
8:14 PM 62.4 °F 52.3 °F 70% 29.90 in 10.0 mi SE 4.6 mph - N/A   Clear
8:35 PM 61.7 °F 51.8 °F 70% 29.89 in 10.0 mi SE 3.5 mph - N/A   Scattered Clouds
8:55 PM 61.2 °F 51.8 °F 71% 29.89 in 10.0 mi SE 4.6 mph - N/A   Scattered Clouds
9:14 PM 61.7 °F 52.2 °F 71% 29.90 in 10.0 mi SSE 3.5 mph - N/A   Overcast
9:35 PM 61.9 °F 52.7 °F 72% 29.89 in 10.0 mi SE 3.5 mph - N/A   Overcast
9:55 PM 61.7 °F 52.9 °F 73% 29.90 in 10.0 mi WSW 9.2 mph - N/A   Mostly Cloudy
10:15 PM 60.4 °F 52.7 °F 76% 29.90 in 10.0 mi Calm Calm - N/A   Clear
10:35 PM 59.2 °F 52.5 °F 79% 29.90 in 10.0 mi Calm Calm - N/A   Clear
11:15 PM 58.3 °F 52.7 °F 82% 29.90 in 10.0 mi Calm Calm - N/A   Clear
11:35 PM 58.5 °F 53.8 °F 84% 29.90 in 10.0 mi Calm Calm - N/A   Scattered Clouds
11:54 PM 58.3 °F 53.6 °F 84% 29.91 in 10.0 mi Calm Calm - N/A   Scattered Clouds